Simultaneous Nadir Overpasses (SNOs) Predictions

Prediction of SNOs between FY3D and AQUA Satellite Orbit:

Table of predicted SNOs for the next 14.0 days since TLE Epoch: 9/18/2020
Index Date (FY3D) Time (FY3D) Lat,Lon (FY3D) SZA (FY3D ) Date (AQUA) Time (AQUA) Lat,Lon (AQUA) SZA (AQUA ) Distance(km) Time Diff (sec)
1 09/20/2020 06:52:07 -55.67, 112.86 64.14 09/20/2020 06:52:35 -55.68, 112.88 64.20 1.44 28
2 09/20/2020 07:40:43 62.80, -74.91 109.16 09/20/2020 07:39:56 62.80, -74.88 109.21 1.95 47
3 09/22/2020 23:08:33 -55.48,-131.33 63.10 09/22/2020 23:09:07 -55.48,-131.34 63.15 0.86 34
4 09/22/2020 23:57:09 62.61, 40.84 110.25 09/22/2020 23:56:28 62.61, 40.84 110.30 0.16 41
5 09/25/2020 15:25:22 -53.93, -16.26 60.83 09/25/2020 15:26:01 -53.93, -16.26 60.89 0.32 39
6 09/25/2020 16:13:32 62.53, 156.69 111.22 09/25/2020 16:12:57 62.52, 156.66 111.29 2.04 35
7 09/28/2020 07:42:10 -52.49, 98.92 58.68 09/28/2020 07:42:54 -52.49, 98.93 58.76 0.92 44
8 09/28/2020 08:30:17 61.28, -88.39 113.30 09/28/2020 08:29:47 61.28, -88.39 113.35 0.20 30
9 09/30/2020 23:58:55 -51.21,-145.78 56.71 09/30/2020 23:59:44 -51.22,-145.77 56.81 1.04 49
10 10/01/2020 00:47:00 60.13, 26.68 115.26 10/01/2020 00:46:35 60.13, 26.70 115.29 1.18 25
